OneWeb SL0092

operational
NORAD ID: 45437 Int'l Des: 2020-020 Owner: ONEWEB Country: UK Constellation: oneweb
LEOCIRCULARPOLARONEWEB_TYPE

About OneWeb SL0092

Description loading...

Live Position

Loading 3D Globe...

Upcoming Passes

Altitude History

Altitude vs Time

uPlot chart will show altitude changes over time

Two-Line Element Set

1 45437U 20020P 26066.16251308 .00000159 00000-0 41153-3 0 9995
2 45437 87.8861 41.3482 0001792 71.5317 288.6006 13.11415059289412
Epoch: Mar 7, 2026 • Age: 16 hours

Current Status

Altitude 1220.9 km
Velocity 7.25 km/s
Sub-Earth Point 28.04°N, 179.87°E
Launch Date Mar 21, 2020
Age 5.9 years
Type internet

Technical Details

Classification Payload
Mass 148.00 kg
Dry Mass 140.00 kg
Total Mass 148.00 kg
Length 1.30 m
Diameter 1.00 m
Span 5.00 m
Shape Trapezoid+2 pan
Manufacturer ONEWUS
Bus Type ARROW
Phase Status In Orbit
Owner/State ONEWEB/UK

Large Constellations

Loading constellations...